sat.trackr.live / text

‹ back to catalog

STARLINK-5140

NORAD 56147 · 2023-046BH

PAYLOAD ACTIVE UNKNOWN

§ Identity

Operator
Country
US
Launch date
2023-03-29
Launch site
AFETR
Launch vehicle
Mass (kg)
RCS (m²)

Purposes: comms

External: N2YO · Heavens-Above · Gunter

§ Orbital elements

Epoch: 2026-05-25T04:00:03.998880Z

Period
93.14 min
Inclination
43.0041°
Eccentricity
0.0001985
Mean motion
15.46048621 rev/d
Perigee alt
426.9 km
Apogee alt
429.6 km
Semi-major
6,806.4 km
B*
3.0879e-2
RAAN
37.5046°
Arg perigee
283.8222°
Mean anomaly
249.8666°
Rev number
584

§ Raw data

STARLINK-51401 56147U 23046BH  26145.16671295  .01706030  00000+0  30879-1 0  99972 56147  43.0041  37.5046 0001985 283.8222 249.8666 15.46048621  5847

JSON: /api/v1/satellites/56147 · /tle

For live sub-satellite position, see the globe view (requires WebGL).

§ Visibility from observer

Set your observer location to see the next 7 days of passes ≥ 10°. The values pass through the URL so the page stays shareable.

No JS? Fill the form by hand. The geolocation button needs JavaScript.